This is the latest recevied weather packets stored in our database for station/object MeshWX-1. If no packets are shown the sender has not sent any weather packets the latest 10 day(s).
| Time | Temp. | Humidity | Pressure | Rain* | Wind** | Luminosity | Snow |
|---|---|---|---|---|---|---|---|
| 1788338608 | 32.78° C | 25% | 1001.1 hPa | - | - | - | - |
| 1788338529 | 32.78° C | 25% | 1001.1 hPa | - | - | - | - |
| 1788337945 | 32.78° C | 24% | 1001.2 hPa | - | - | - | - |
| 1788336494 | 32.78° C | 24% | 1001.2 hPa | - | - | - | - |
| 1788335905 | 32.78° C | 24% | 1001.3 hPa | - | - | - | - |
| 1788334562 | 32.78° C | 24% | 1001.3 hPa | - | - | - | - |
| 1788334442 | 32.78° C | 24% | 1001.3 hPa | - | - | - | - |
| 1788333865 | 33.33° C | 24% | 1001.1 hPa | - | - | - | - |
| 1788332318 | 33.33° C | 24% | 1001.1 hPa | - | - | - | - |
| 1788331704 | 30.56° C | 28% | 1001.1 hPa | - | - | - | - |
| 1788330309 | 30.56° C | 28% | 1001.1 hPa | - | - | - | - |
| 1788330176 | 30.56° C | 28% | 1001.1 hPa | - | - | - | - |
| 1788329544 | 28.33° C | 36% | 1001.1 hPa | - | - | - | - |
| 1788328088 | 28.33° C | 36% | 1001.1 hPa | - | - | - | - |
| 1788327384 | 25.56° C | 42% | 1001.2 hPa | - | - | - | - |
| 1788326133 | 25.56° C | 42% | 1001.2 hPa | - | - | - | - |
| 1788325982 | 25.56° C | 42% | 1001.2 hPa | - | - | - | - |
| 1788325224 | 22.22° C | 53% | 1001.1 hPa | - | - | - | - |
| 1788323911 | 22.22° C | 53% | 1001.1 hPa | - | - | - | - |
| 1788323124 | 21.11° C | 57% | 1001 hPa | - | - | - | - |
| 1788321990 | 21.11° C | 57% | 1001 hPa | - | - | - | - |
| 1788321877 | 21.11° C | 57% | 1001 hPa | - | - | - | - |
| 1788321034 | 22.22° C | 49% | 1000.8 hPa | - | - | - | - |
| 1788321023 | 22.22° C | 49% | 1000.8 hPa | - | - | - | - |
| 1788319754 | 22.22° C | 49% | 1000.8 hPa | - | - | - | - |
* Rain since midnight (hover to see other rain measurements)
** Current wind speed in m/s (hover to see current wind gust speed)